{"data":{"norad_id":46074,"intl_designator":"2020-055AZ","name":"STARLINK-1549","alt_names":[],"object_type":"PAYLOAD","status":"ACTIVE","operator":null,"country":"US","launch_date":"2020-08-07","launch_site_code":"AFETR","launch_vehicle":null,"mission":null,"orbit_class":"UNKNOWN","rcs_meters":null,"size_class":null,"mass_kg":null,"dimensions":null,"purposes":["comms"],"wikipedia_slug":null,"has_3d_model":false,"image_url":null,"decayed_at":null,"tle_current":{"epoch":"2026-09-20T00:26:28.120128Z","epoch_age_seconds":59830,"freshness":"FRESH","line1":"1 46074U 20055AZ  26263.01838102  .00034197  00000+0  85863-3 0  9991","line2":"2 46074  53.0463 273.5476 0004051  26.0391 334.0816 15.39699363339025","mean_motion":15.39699363,"eccentricity":0.0004051,"inclination_deg":53.0463,"raan_deg":273.5476,"arg_perigee_deg":26.0391,"mean_anomaly_deg":334.0816,"bstar":0.00085863,"rev_number":33902,"period_min":93.524751299127,"perigee_km":444.23274805343,"apogee_km":449.76247211452,"semimajor_km":6825.134610084,"source":"CELESTRAK","updated_at":"2026-09-20T09:00:38.464912Z"}}}